Year,Month,Day,Hour,Minute,Value (Times are PST for temperature in C)
2013,03,31,00,00,8.30
2013,03,31,00,01,8.30
2013,03,31,00,02,8.30
2013,03,31,00,03,8.30
2013,03,31,00,04,8.30
2013,03,31,00,05,8.30
2013,03,31,00,06,8.30
2013,03,31,00,07,8.30
2013,03,31,00,08,8.30
2013,03,31,00,09,8.30
2013,03,31,00,10,8.30
2013,03,31,00,11,8.30
2013,03,31,00,12,8.40
2013,03,31,00,13,8.40
2013,03,31,00,14,8.40
2013,03,31,00,15,8.40
2013,03,31,00,16,8.30
2013,03,31,00,17,8.30
2013,03,31,00,18,8.30
2013,03,31,00,19,8.30
2013,03,31,00,20,8.20
2013,03,31,00,21,8.20
2013,03,31,00,22,8.20
2013,03,31,00,23,8.20
2013,03,31,00,24,8.10
2013,03,31,00,25,8.10
2013,03,31,00,26,8.00
2013,03,31,00,27,8.00
2013,03,31,00,28,8.00
2013,03,31,00,29,7.90
2013,03,31,00,30,7.90
2013,03,31,00,31,7.80
2013,03,31,00,32,7.80
2013,03,31,00,33,7.80
2013,03,31,00,34,7.80
2013,03,31,00,35,7.80
2013,03,31,00,36,7.80
2013,03,31,00,37,7.80
2013,03,31,00,38,7.80
2013,03,31,00,39,7.70
2013,03,31,00,40,7.70
2013,03,31,00,41,7.70
2013,03,31,00,42,7.70
2013,03,31,00,43,7.70
2013,03,31,00,44,7.70
2013,03,31,00,45,7.70
2013,03,31,00,46,7.70
2013,03,31,00,47,7.80
2013,03,31,00,48,7.80
2013,03,31,00,49,7.80
2013,03,31,00,50,7.80
2013,03,31,00,51,7.80
2013,03,31,00,52,7.80
2013,03,31,00,53,7.80
2013,03,31,00,54,7.80
2013,03,31,00,55,7.70
2013,03,31,00,56,7.70
2013,03,31,00,57,7.70
2013,03,31,00,58,7.70
2013,03,31,00,59,7.70
2013,03,31,01,00,7.70
2013,03,31,01,01,7.60
2013,03,31,01,02,7.60
2013,03,31,01,03,7.60
2013,03,31,01,04,7.60
2013,03,31,01,05,7.60
2013,03,31,01,06,7.60
2013,03,31,01,07,7.60
2013,03,31,01,08,7.60
2013,03,31,01,09,7.50
2013,03,31,01,10,7.50
2013,03,31,01,11,7.50
2013,03,31,01,12,7.50
2013,03,31,01,13,7.50
2013,03,31,01,14,7.40
2013,03,31,01,15,7.40
2013,03,31,01,16,7.50
2013,03,31,01,17,7.50
2013,03,31,01,18,7.50
2013,03,31,01,19,7.40
2013,03,31,01,20,7.40
2013,03,31,01,21,7.40
2013,03,31,01,22,7.40
2013,03,31,01,23,7.30
2013,03,31,01,24,7.30
2013,03,31,01,25,7.30
2013,03,31,01,26,7.30
2013,03,31,01,27,7.30
2013,03,31,01,28,7.40
2013,03,31,01,29,7.40
2013,03,31,01,30,7.40
2013,03,31,01,31,7.40
2013,03,31,01,32,7.50
2013,03,31,01,33,7.50
2013,03,31,01,34,7.60
2013,03,31,01,35,7.60
2013,03,31,01,36,7.60
2013,03,31,01,37,7.70
2013,03,31,01,38,7.70
2013,03,31,01,39,7.70
2013,03,31,01,40,7.70
2013,03,31,01,41,7.70
2013,03,31,01,42,7.80
2013,03,31,01,43,7.80
2013,03,31,01,44,7.80
2013,03,31,01,45,7.80
2013,03,31,01,46,7.80
2013,03,31,01,47,7.70
2013,03,31,01,48,7.70
2013,03,31,01,49,7.70
2013,03,31,01,50,7.60
2013,03,31,01,51,7.60
2013,03,31,01,52,7.50
2013,03,31,01,53,7.50
2013,03,31,01,54,7.50
2013,03,31,01,55,7.50
2013,03,31,01,56,7.50
2013,03,31,01,57,7.60
2013,03,31,01,58,7.60
2013,03,31,01,59,7.60
2013,03,31,02,00,7.70
2013,03,31,02,01,7.80
2013,03,31,02,02,7.80
2013,03,31,02,03,7.80
2013,03,31,02,04,7.80
2013,03,31,02,05,7.80
2013,03,31,02,06,7.80
2013,03,31,02,07,7.80
2013,03,31,02,08,7.80
2013,03,31,02,09,7.80
2013,03,31,02,10,7.80
2013,03,31,02,11,7.80
2013,03,31,02,12,7.80
2013,03,31,02,13,7.80
2013,03,31,02,14,7.90
2013,03,31,02,15,7.90
2013,03,31,02,16,8.00
2013,03,31,02,17,8.10
2013,03,31,02,18,8.10
2013,03,31,02,19,8.20
2013,03,31,02,20,8.20
2013,03,31,02,21,8.30
2013,03,31,02,22,8.40
2013,03,31,02,23,8.50
2013,03,31,02,24,8.60
2013,03,31,02,25,8.70
2013,03,31,02,26,8.80
2013,03,31,02,27,8.80
2013,03,31,02,28,8.80
2013,03,31,02,29,8.80
2013,03,31,02,30,8.80
2013,03,31,02,31,8.70
2013,03,31,02,32,8.70
2013,03,31,02,33,8.60
2013,03,31,02,34,8.50
2013,03,31,02,35,8.50
2013,03,31,02,36,8.40
2013,03,31,02,37,8.30
2013,03,31,02,38,8.20
2013,03,31,02,39,8.20
2013,03,31,02,40,8.20
2013,03,31,02,41,8.20
2013,03,31,02,42,8.10
2013,03,31,02,43,8.10
2013,03,31,02,44,8.00
2013,03,31,02,45,8.00
2013,03,31,02,46,7.90
2013,03,31,02,47,7.90
2013,03,31,02,48,7.80
2013,03,31,02,49,7.80
2013,03,31,02,50,7.80
2013,03,31,02,51,7.80
2013,03,31,02,52,7.70
2013,03,31,02,53,7.70
2013,03,31,02,54,7.70
2013,03,31,02,55,7.60
2013,03,31,02,56,7.60
2013,03,31,02,57,7.60
2013,03,31,02,58,7.60
2013,03,31,02,59,7.60
2013,03,31,03,00,7.60
2013,03,31,03,01,7.60
2013,03,31,03,02,7.60
2013,03,31,03,03,7.60
2013,03,31,03,04,7.70
2013,03,31,03,05,7.70
2013,03,31,03,06,7.80
2013,03,31,03,07,7.80
2013,03,31,03,08,7.80
2013,03,31,03,09,7.90
2013,03,31,03,10,8.00
2013,03,31,03,11,8.10
2013,03,31,03,12,8.20
2013,03,31,03,13,8.30
2013,03,31,03,14,8.40
2013,03,31,03,15,8.50
2013,03,31,03,16,8.70
2013,03,31,03,17,8.70
2013,03,31,03,18,8.80
2013,03,31,03,19,8.90
2013,03,31,03,20,9.00
2013,03,31,03,21,9.10
2013,03,31,03,22,9.20
2013,03,31,03,23,9.20
2013,03,31,03,24,9.30
2013,03,31,03,25,9.30
2013,03,31,03,26,9.30
2013,03,31,03,27,9.40
2013,03,31,03,28,9.40
2013,03,31,03,29,9.40
2013,03,31,03,30,9.50
2013,03,31,03,31,9.50
2013,03,31,03,32,9.50
2013,03,31,03,33,9.50
2013,03,31,03,34,9.50
2013,03,31,03,35,9.50
2013,03,31,03,36,9.60
2013,03,31,03,37,9.60
2013,03,31,03,38,9.60
2013,03,31,03,39,9.60
2013,03,31,03,40,9.60
2013,03,31,03,41,9.60
2013,03,31,03,42,9.60
2013,03,31,03,43,9.60
2013,03,31,03,44,9.60
2013,03,31,03,45,9.60
2013,03,31,03,46,9.60
2013,03,31,03,47,9.50
2013,03,31,03,48,9.50
2013,03,31,03,49,9.50
2013,03,31,03,50,9.40
2013,03,31,03,51,9.40
2013,03,31,03,52,9.40
2013,03,31,03,53,9.40
2013,03,31,03,54,9.30
2013,03,31,03,55,9.30
2013,03,31,03,56,9.30
2013,03,31,03,57,9.30
2013,03,31,03,58,9.30
2013,03,31,03,59,9.30
2013,03,31,04,00,9.30
2013,03,31,04,01,9.30
2013,03,31,04,02,9.30
2013,03,31,04,03,9.30
2013,03,31,04,04,9.20
2013,03,31,04,05,9.20
2013,03,31,04,06,9.20
2013,03,31,04,07,9.20
2013,03,31,04,08,9.30
2013,03,31,04,09,9.30
2013,03,31,04,10,9.30
2013,03,31,04,11,9.30
2013,03,31,04,12,9.40
2013,03,31,04,13,9.40
2013,03,31,04,14,9.40
2013,03,31,04,15,9.40
2013,03,31,04,16,9.40
2013,03,31,04,17,9.40
2013,03,31,04,18,9.50
2013,03,31,04,19,9.50
2013,03,31,04,20,9.50
2013,03,31,04,21,9.50
2013,03,31,04,22,9.50
2013,03,31,04,23,9.50
2013,03,31,04,24,9.50
2013,03,31,04,25,9.50
2013,03,31,04,26,9.50
2013,03,31,04,27,9.50
2013,03,31,04,28,9.50
2013,03,31,04,29,9.40
2013,03,31,04,30,9.40
2013,03,31,04,31,9.40
2013,03,31,04,32,9.40
2013,03,31,04,33,9.40
2013,03,31,04,34,9.40
2013,03,31,04,35,9.40
2013,03,31,04,36,9.30
2013,03,31,04,37,9.30
2013,03,31,04,38,9.30
2013,03,31,04,39,9.30
2013,03,31,04,40,9.30
2013,03,31,04,41,9.30
2013,03,31,04,42,9.30
2013,03,31,04,43,9.30
2013,03,31,04,44,9.30
2013,03,31,04,45,9.30
2013,03,31,04,46,9.30
2013,03,31,04,47,9.30
2013,03,31,04,48,9.30
2013,03,31,04,49,9.30
2013,03,31,04,50,9.30
2013,03,31,04,51,9.30
2013,03,31,04,52,9.30
2013,03,31,04,53,9.30
2013,03,31,04,54,9.30
2013,03,31,04,55,9.30
2013,03,31,04,56,9.30
2013,03,31,04,57,9.30
2013,03,31,04,58,9.30
2013,03,31,04,59,9.30
2013,03,31,05,00,9.40
2013,03,31,05,01,9.40
2013,03,31,05,02,9.40
2013,03,31,05,03,9.40
2013,03,31,05,04,9.50
2013,03,31,05,05,9.70
2013,03,31,05,06,9.90
2013,03,31,05,07,10.20
2013,03,31,05,08,10.50
2013,03,31,05,09,10.80
2013,03,31,05,10,11.10
2013,03,31,05,11,11.30
2013,03,31,05,12,11.50
2013,03,31,05,13,11.60
2013,03,31,05,14,11.70
2013,03,31,05,15,11.80
2013,03,31,05,16,11.90
2013,03,31,05,17,12.00
2013,03,31,05,18,12.10
2013,03,31,05,19,12.10
2013,03,31,05,20,12.10
2013,03,31,05,21,12.10
2013,03,31,05,22,12.10
2013,03,31,05,23,12.10
2013,03,31,05,24,12.10
2013,03,31,05,25,12.00
2013,03,31,05,26,11.90
2013,03,31,05,27,11.90
2013,03,31,05,28,12.00
2013,03,31,05,29,12.00
2013,03,31,05,30,12.10
2013,03,31,05,31,12.10
2013,03,31,05,32,12.10
2013,03,31,05,33,12.20
2013,03,31,05,34,12.10
2013,03,31,05,35,12.10
2013,03,31,05,36,12.10
2013,03,31,05,37,12.00
2013,03,31,05,38,12.00
2013,03,31,05,39,12.00
2013,03,31,05,40,12.00
2013,03,31,05,41,12.10
2013,03,31,05,42,12.10
2013,03,31,05,43,12.20
2013,03,31,05,44,12.30
2013,03,31,05,45,12.30
2013,03,31,05,46,12.30
2013,03,31,05,47,12.30
2013,03,31,05,48,12.30
2013,03,31,05,49,12.30
2013,03,31,05,50,12.30
2013,03,31,05,51,12.30
2013,03,31,05,52,12.30
2013,03,31,05,53,12.30
2013,03,31,05,54,12.30
2013,03,31,05,55,12.30
2013,03,31,05,56,12.30
2013,03,31,05,57,12.20
2013,03,31,05,58,12.10
2013,03,31,05,59,12.00
2013,03,31,06,00,11.90
2013,03,31,06,01,11.90
2013,03,31,06,02,11.80
2013,03,31,06,03,11.70
2013,03,31,06,04,11.60
2013,03,31,06,05,11.60
2013,03,31,06,06,11.40
2013,03,31,06,07,11.30
2013,03,31,06,08,11.20
2013,03,31,06,09,11.10
2013,03,31,06,10,11.10
2013,03,31,06,11,11.10
2013,03,31,06,12,11.00
2013,03,31,06,13,10.90
2013,03,31,06,14,10.90
2013,03,31,06,15,10.80
2013,03,31,06,16,10.60
2013,03,31,06,17,10.50
2013,03,31,06,18,10.30
2013,03,31,06,19,10.20
2013,03,31,06,20,10.10
2013,03,31,06,21,10.10
2013,03,31,06,22,9.90
2013,03,31,06,23,9.80
2013,03,31,06,24,9.70
2013,03,31,06,25,9.70
2013,03,31,06,26,9.60
2013,03,31,06,27,9.50
2013,03,31,06,28,9.40
2013,03,31,06,29,9.40
2013,03,31,06,30,9.30
2013,03,31,06,31,9.30
2013,03,31,06,32,9.20
2013,03,31,06,33,9.20
2013,03,31,06,34,9.20
2013,03,31,06,35,9.20
2013,03,31,06,36,9.20
2013,03,31,06,37,9.20
2013,03,31,06,38,9.20
2013,03,31,06,39,9.20
2013,03,31,06,40,9.20
2013,03,31,06,41,9.20
2013,03,31,06,42,9.20
2013,03,31,06,43,9.20
2013,03,31,06,44,9.20
2013,03,31,06,45,9.20
2013,03,31,06,46,9.10
2013,03,31,06,47,9.10
2013,03,31,06,48,9.10
2013,03,31,06,49,9.20
2013,03,31,06,50,9.20
2013,03,31,06,51,9.20
2013,03,31,06,52,9.20
2013,03,31,06,53,9.20
2013,03,31,06,54,9.20
2013,03,31,06,55,9.20
2013,03,31,06,56,9.20
2013,03,31,06,57,9.20
2013,03,31,06,58,9.20
2013,03,31,06,59,9.20
2013,03,31,07,00,9.20
2013,03,31,07,01,9.10
2013,03,31,07,02,9.10
2013,03,31,07,03,9.10
2013,03,31,07,04,9.00
2013,03,31,07,05,9.00
2013,03,31,07,06,9.00
2013,03,31,07,07,9.00
2013,03,31,07,08,9.00
2013,03,31,07,09,9.00
2013,03,31,07,10,9.00
2013,03,31,07,11,9.00
2013,03,31,07,12,9.00
2013,03,31,07,13,9.00
2013,03,31,07,14,9.00
2013,03,31,07,15,9.20
2013,03,31,07,16,9.20
2013,03,31,07,17,9.20
2013,03,31,07,18,9.20
2013,03,31,07,19,9.30
2013,03,31,07,20,9.30
2013,03,31,07,21,9.30
2013,03,31,07,22,9.30
2013,03,31,07,23,9.30
2013,03,31,07,24,9.30
2013,03,31,07,25,9.30
2013,03,31,07,26,9.30
2013,03,31,07,27,9.40
2013,03,31,07,28,9.40
2013,03,31,07,29,9.40
2013,03,31,07,30,9.40
2013,03,31,07,31,9.40
2013,03,31,07,32,9.40
2013,03,31,07,33,9.40
2013,03,31,07,34,9.30
2013,03,31,07,35,9.30
2013,03,31,07,36,9.30
2013,03,31,07,37,9.30
2013,03,31,07,38,9.30
2013,03,31,07,39,9.40
2013,03,31,07,40,9.40
2013,03,31,07,41,9.50
2013,03,31,07,42,9.50
2013,03,31,07,43,9.50
2013,03,31,07,44,9.50
2013,03,31,07,45,9.50
2013,03,31,07,46,9.60
2013,03,31,07,47,9.60
2013,03,31,07,48,9.60
2013,03,31,07,49,9.70
2013,03,31,07,50,9.70
2013,03,31,07,51,9.70
2013,03,31,07,52,9.70
2013,03,31,07,53,9.70
2013,03,31,07,54,9.70
2013,03,31,07,55,9.80
2013,03,31,07,56,9.80
2013,03,31,07,57,9.80
2013,03,31,07,58,9.90
2013,03,31,07,59,9.90
2013,03,31,08,00,9.90
2013,03,31,08,01,9.90
2013,03,31,08,02,9.90
2013,03,31,08,03,9.90
2013,03,31,08,04,9.90
2013,03,31,08,05,9.90
2013,03,31,08,06,10.00
2013,03,31,08,07,10.10
2013,03,31,08,08,10.10
2013,03,31,08,09,10.10
2013,03,31,08,10,10.20
2013,03,31,08,11,10.20
2013,03,31,08,12,10.30
2013,03,31,08,13,10.20
2013,03,31,08,14,10.30
2013,03,31,08,15,10.40
2013,03,31,08,16,10.40
2013,03,31,08,17,10.40
2013,03,31,08,18,10.50
2013,03,31,08,19,10.60
2013,03,31,08,20,10.60
2013,03,31,08,21,10.60
2013,03,31,08,22,10.60
2013,03,31,08,23,10.60
2013,03,31,08,24,10.60
2013,03,31,08,25,10.60
2013,03,31,08,26,10.70
2013,03,31,08,27,10.70
2013,03,31,08,28,10.70
2013,03,31,08,29,10.80
2013,03,31,08,30,10.80
2013,03,31,08,31,10.80
2013,03,31,08,32,10.80
2013,03,31,08,33,10.90
2013,03,31,08,34,10.90
2013,03,31,08,35,10.90
2013,03,31,08,36,10.90
2013,03,31,08,37,10.90
2013,03,31,08,38,10.90
2013,03,31,08,39,10.90
2013,03,31,08,40,10.90
2013,03,31,08,41,10.90
2013,03,31,08,42,10.90
2013,03,31,08,43,10.90
2013,03,31,08,44,10.90
2013,03,31,08,45,10.90
2013,03,31,08,46,10.90
2013,03,31,08,47,10.90
2013,03,31,08,48,10.90
2013,03,31,08,49,10.90
2013,03,31,08,50,10.90
2013,03,31,08,51,10.90
2013,03,31,08,52,11.00
2013,03,31,08,53,11.10
2013,03,31,08,54,11.10
2013,03,31,08,55,11.10
2013,03,31,08,56,11.10
2013,03,31,08,57,11.10
2013,03,31,08,58,11.10
2013,03,31,08,59,11.00
2013,03,31,09,00,10.90
2013,03,31,09,01,10.90
2013,03,31,09,02,10.90
2013,03,31,09,03,10.90
2013,03,31,09,04,10.90
2013,03,31,09,05,10.90
2013,03,31,09,06,10.90
2013,03,31,09,07,11.10
2013,03,31,09,08,11.10
2013,03,31,09,09,11.10
2013,03,31,09,10,11.10
2013,03,31,09,11,11.20
2013,03,31,09,12,11.20
2013,03,31,09,13,11.30
2013,03,31,09,14,11.40
2013,03,31,09,15,11.50
2013,03,31,09,16,11.60
2013,03,31,09,17,11.60
2013,03,31,09,18,11.70
2013,03,31,09,19,11.60
2013,03,31,09,20,11.60
2013,03,31,09,21,11.60
2013,03,31,09,22,11.60
2013,03,31,09,23,11.60
2013,03,31,09,24,11.60
2013,03,31,09,25,11.70
2013,03,31,09,26,11.80
2013,03,31,09,27,11.80
2013,03,31,09,28,11.80
2013,03,31,09,29,11.80
2013,03,31,09,30,11.80
2013,03,31,09,31,11.80
2013,03,31,09,32,11.80
2013,03,31,09,33,11.80
2013,03,31,09,34,11.80
2013,03,31,09,35,11.80
2013,03,31,09,36,11.80
2013,03,31,09,37,11.80
2013,03,31,09,38,11.90
2013,03,31,09,39,11.90
2013,03,31,09,40,11.90
2013,03,31,09,41,12.00
2013,03,31,09,42,12.10
2013,03,31,09,43,12.20
2013,03,31,09,44,12.20
2013,03,31,09,45,12.30
2013,03,31,09,46,12.30
2013,03,31,09,47,12.20
2013,03,31,09,48,12.00
2013,03,31,09,49,11.90
2013,03,31,09,50,11.80
2013,03,31,09,51,11.80
2013,03,31,09,52,11.80
2013,03,31,09,53,11.80
2013,03,31,09,54,11.90
2013,03,31,09,55,11.90
2013,03,31,09,56,11.80
2013,03,31,09,57,11.80
2013,03,31,09,58,11.70
2013,03,31,09,59,11.80
2013,03,31,10,00,11.80
2013,03,31,10,01,11.80
2013,03,31,10,02,11.80
2013,03,31,10,03,11.80
2013,03,31,10,04,11.80
2013,03,31,10,05,11.80
2013,03,31,10,06,11.80
2013,03,31,10,07,11.80
2013,03,31,10,08,11.80
2013,03,31,10,09,11.90
2013,03,31,10,10,11.90
2013,03,31,10,11,11.90
2013,03,31,10,12,12.00
2013,03,31,10,13,12.00
2013,03,31,10,14,12.00
2013,03,31,10,15,12.10
2013,03,31,10,16,12.10
2013,03,31,10,17,12.10
2013,03,31,10,18,12.00
2013,03,31,10,19,12.00
2013,03,31,10,20,11.90
2013,03,31,10,21,12.00
2013,03,31,10,22,12.00
2013,03,31,10,23,12.10
2013,03,31,10,24,12.20
2013,03,31,10,25,12.20
2013,03,31,10,26,12.20
2013,03,31,10,27,12.30
2013,03,31,10,28,12.30
2013,03,31,10,29,12.40
2013,03,31,10,30,12.50
2013,03,31,10,31,12.50
2013,03,31,10,32,12.60
2013,03,31,10,33,12.60
2013,03,31,10,34,12.60
2013,03,31,10,35,12.50
2013,03,31,10,36,12.40
2013,03,31,10,37,12.50
2013,03,31,10,38,12.50
2013,03,31,10,39,12.70
2013,03,31,10,40,12.80
2013,03,31,10,41,13.00
2013,03,31,10,42,13.10
2013,03,31,10,43,13.30
2013,03,31,10,44,13.40
2013,03,31,10,45,13.50
2013,03,31,10,46,13.60
2013,03,31,10,47,13.70
2013,03,31,10,48,13.70
2013,03,31,10,49,13.70
2013,03,31,10,50,13.70
2013,03,31,10,51,13.80
2013,03,31,10,52,13.80
2013,03,31,10,53,13.80
2013,03,31,10,54,13.80
2013,03,31,10,55,13.90
2013,03,31,10,56,13.90
2013,03,31,10,57,13.90
2013,03,31,10,58,14.00
2013,03,31,10,59,14.10
2013,03,31,11,00,14.00
2013,03,31,11,01,13.90
2013,03,31,11,02,13.80
2013,03,31,11,03,13.80
2013,03,31,11,04,13.80
2013,03,31,11,05,13.90
2013,03,31,11,06,13.90
2013,03,31,11,07,14.00
2013,03,31,11,08,14.20
2013,03,31,11,09,14.20
2013,03,31,11,10,14.20
2013,03,31,11,11,14.30
2013,03,31,11,12,14.30
2013,03,31,11,13,14.20
2013,03,31,11,14,14.10
2013,03,31,11,15,14.00
2013,03,31,11,16,13.90
2013,03,31,11,17,13.90
2013,03,31,11,18,13.90
2013,03,31,11,19,13.80
2013,03,31,11,20,13.70
2013,03,31,11,21,13.70
2013,03,31,11,22,13.70
2013,03,31,11,23,13.70
2013,03,31,11,24,13.70
2013,03,31,11,25,13.70
2013,03,31,11,26,13.60
2013,03,31,11,27,13.50
2013,03,31,11,28,13.40
2013,03,31,11,29,13.40
2013,03,31,11,30,13.50
2013,03,31,11,31,13.50
2013,03,31,11,32,13.70
2013,03,31,11,33,13.70
2013,03,31,11,34,13.80
2013,03,31,11,35,13.80
2013,03,31,11,36,13.90
2013,03,31,11,37,13.90
2013,03,31,11,38,14.00
2013,03,31,11,39,14.20
2013,03,31,11,40,14.30
2013,03,31,11,41,14.50
2013,03,31,11,42,14.70
2013,03,31,11,43,14.70
2013,03,31,11,44,14.80
2013,03,31,11,45,14.90
2013,03,31,11,46,15.00
2013,03,31,11,47,15.00
2013,03,31,11,48,15.10
2013,03,31,11,49,15.20
2013,03,31,11,50,15.30
2013,03,31,11,51,15.40
2013,03,31,11,52,15.50
2013,03,31,11,53,15.60
2013,03,31,11,54,15.70
2013,03,31,11,55,15.70
2013,03,31,11,56,15.80
2013,03,31,11,57,15.80
2013,03,31,11,58,15.80
2013,03,31,11,59,15.80
2013,03,31,12,00,15.80
2013,03,31,12,01,15.90
2013,03,31,12,02,16.00
2013,03,31,12,03,16.10
2013,03,31,12,04,16.20
2013,03,31,12,05,16.10
2013,03,31,12,06,16.10
2013,03,31,12,07,16.10
2013,03,31,12,08,16.10
2013,03,31,12,09,16.10
2013,03,31,12,10,16.10
2013,03,31,12,11,16.10
2013,03,31,12,12,16.10
2013,03,31,12,13,16.10
2013,03,31,12,14,16.20
2013,03,31,12,15,16.20
2013,03,31,12,16,16.20
2013,03,31,12,17,16.30
2013,03,31,12,18,16.40
2013,03,31,12,19,16.40
2013,03,31,12,20,16.40
2013,03,31,12,21,16.40
2013,03,31,12,22,16.40
2013,03,31,12,23,16.40
2013,03,31,12,24,16.40
2013,03,31,12,25,16.50
2013,03,31,12,26,16.60
2013,03,31,12,27,16.60
2013,03,31,12,28,16.60
2013,03,31,12,29,16.70
2013,03,31,12,30,16.70
2013,03,31,12,31,16.70
2013,03,31,12,32,16.70
2013,03,31,12,33,16.70
2013,03,31,12,34,16.70
2013,03,31,12,35,16.70
2013,03,31,12,36,16.70
2013,03,31,12,37,16.70
2013,03,31,12,38,16.70
2013,03,31,12,39,16.70
2013,03,31,12,40,16.70
2013,03,31,12,41,16.70
2013,03,31,12,42,16.70
2013,03,31,12,43,16.70
2013,03,31,12,44,16.80
2013,03,31,12,45,16.90
2013,03,31,12,46,16.90
2013,03,31,12,47,17.00
2013,03,31,12,48,17.00
2013,03,31,12,49,17.10
2013,03,31,12,50,17.00
2013,03,31,12,51,17.00
2013,03,31,12,52,17.00
2013,03,31,12,53,17.10
2013,03,31,12,54,17.10
2013,03,31,12,55,17.20
2013,03,31,12,56,17.30
2013,03,31,12,57,17.30
2013,03,31,12,58,17.30
2013,03,31,12,59,17.20
2013,03,31,13,00,17.30
2013,03,31,13,01,17.30
2013,03,31,13,02,17.30
2013,03,31,13,03,17.40
2013,03,31,13,04,17.40
2013,03,31,13,05,17.40
2013,03,31,13,06,17.40
2013,03,31,13,07,17.30
2013,03,31,13,08,17.30
2013,03,31,13,09,17.20
2013,03,31,13,10,17.20
2013,03,31,13,11,17.10
2013,03,31,13,12,17.10
2013,03,31,13,13,17.10
2013,03,31,13,14,17.00
2013,03,31,13,15,17.00
2013,03,31,13,16,17.10
2013,03,31,13,17,17.10
2013,03,31,13,18,17.10
2013,03,31,13,19,17.20
2013,03,31,13,20,17.30
2013,03,31,13,21,17.40
2013,03,31,13,22,17.40
2013,03,31,13,23,17.40
2013,03,31,13,24,17.40
2013,03,31,13,25,17.30
2013,03,31,13,26,17.30
2013,03,31,13,27,17.30
2013,03,31,13,28,17.30
2013,03,31,13,29,17.40
2013,03,31,13,30,17.40
2013,03,31,13,31,17.50
2013,03,31,13,32,17.50
2013,03,31,13,33,17.60
2013,03,31,13,34,17.70
2013,03,31,13,35,17.70
2013,03,31,13,36,17.70
2013,03,31,13,37,17.70
2013,03,31,13,38,17.70
2013,03,31,13,39,17.70
2013,03,31,13,40,17.70
2013,03,31,13,41,17.70
2013,03,31,13,42,17.80
2013,03,31,13,43,17.90
2013,03,31,13,44,17.90
2013,03,31,13,45,17.90
2013,03,31,13,46,18.00
2013,03,31,13,47,18.00
2013,03,31,13,48,18.10
2013,03,31,13,49,18.10
2013,03,31,13,50,18.10
2013,03,31,13,51,18.10
2013,03,31,13,52,18.10
2013,03,31,13,53,18.00
2013,03,31,13,54,17.90
2013,03,31,13,55,17.90
2013,03,31,13,56,18.00
2013,03,31,13,57,18.10
2013,03,31,13,58,18.10
2013,03,31,13,59,18.10
2013,03,31,14,00,18.00
2013,03,31,14,01,17.90
2013,03,31,14,02,17.90
2013,03,31,14,03,17.90
2013,03,31,14,04,17.90
2013,03,31,14,05,18.10
2013,03,31,14,06,18.10
2013,03,31,14,07,18.20
2013,03,31,14,08,18.20
2013,03,31,14,09,18.30
2013,03,31,14,10,18.30
2013,03,31,14,11,18.40
2013,03,31,14,12,18.40
2013,03,31,14,13,18.50
2013,03,31,14,14,18.50
2013,03,31,14,15,18.60
2013,03,31,14,16,18.60
2013,03,31,14,17,18.60
2013,03,31,14,18,18.60
2013,03,31,14,19,18.60
2013,03,31,14,20,18.60
2013,03,31,14,21,18.60
2013,03,31,14,22,18.60
2013,03,31,14,23,18.60
2013,03,31,14,24,18.70
2013,03,31,14,25,18.70
2013,03,31,14,26,18.70
2013,03,31,14,27,18.80
2013,03,31,14,28,18.80
2013,03,31,14,29,18.80
2013,03,31,14,30,18.90
2013,03,31,14,31,18.90
2013,03,31,14,32,18.80
2013,03,31,14,33,18.70
2013,03,31,14,34,18.60
2013,03,31,14,35,18.50
2013,03,31,14,36,18.50
2013,03,31,14,37,18.50
2013,03,31,14,38,18.50
2013,03,31,14,39,18.60
2013,03,31,14,40,18.60
2013,03,31,14,41,18.60
2013,03,31,14,42,18.60
2013,03,31,14,43,18.60
2013,03,31,14,44,18.70
2013,03,31,14,45,18.80
2013,03,31,14,46,18.90
2013,03,31,14,47,18.90
2013,03,31,14,48,18.90
2013,03,31,14,49,19.00
2013,03,31,14,50,19.10
2013,03,31,14,51,19.20
2013,03,31,14,52,19.30
2013,03,31,14,53,19.40
2013,03,31,14,54,19.50
2013,03,31,14,55,19.60
2013,03,31,14,56,19.70
2013,03,31,14,57,19.80
2013,03,31,14,58,19.80
2013,03,31,14,59,19.80
2013,03,31,15,00,19.80
2013,03,31,15,01,19.80
2013,03,31,15,02,19.80
2013,03,31,15,03,19.80
2013,03,31,15,04,19.80
2013,03,31,15,05,19.70
2013,03,31,15,06,19.70
2013,03,31,15,07,19.70
2013,03,31,15,08,19.70
2013,03,31,15,09,19.70
2013,03,31,15,10,19.70
2013,03,31,15,11,19.70
2013,03,31,15,12,19.60
2013,03,31,15,13,19.60
2013,03,31,15,14,19.60
2013,03,31,15,15,19.50
2013,03,31,15,16,19.40
2013,03,31,15,17,19.40
2013,03,31,15,18,19.40
2013,03,31,15,19,19.40
2013,03,31,15,20,19.50
2013,03,31,15,21,19.50
2013,03,31,15,22,19.50
2013,03,31,15,23,19.60
2013,03,31,15,24,19.60
2013,03,31,15,25,19.70
2013,03,31,15,26,19.70
2013,03,31,15,27,19.70
2013,03,31,15,28,19.70
2013,03,31,15,29,19.70
2013,03,31,15,30,19.70
2013,03,31,15,31,19.80
2013,03,31,15,32,19.80
2013,03,31,15,33,19.80
2013,03,31,15,34,19.80
2013,03,31,15,35,19.70
2013,03,31,15,36,19.70
2013,03,31,15,37,19.80
2013,03,31,15,38,19.80
2013,03,31,15,39,19.80
2013,03,31,15,40,19.90
2013,03,31,15,41,19.90
2013,03,31,15,42,19.90
2013,03,31,15,43,19.90
2013,03,31,15,44,19.80
2013,03,31,15,45,19.70
2013,03,31,15,46,19.70
2013,03,31,15,47,19.70
2013,03,31,15,48,19.70
2013,03,31,15,49,19.60
2013,03,31,15,50,19.60
2013,03,31,15,51,19.60
2013,03,31,15,52,19.60
2013,03,31,15,53,19.60
2013,03,31,15,54,19.60
2013,03,31,15,55,19.70
2013,03,31,15,56,19.70
2013,03,31,15,57,19.70
2013,03,31,15,58,19.70
2013,03,31,15,59,19.70
2013,03,31,16,00,19.70
2013,03,31,16,01,19.70
2013,03,31,16,02,19.70
2013,03,31,16,03,19.80
2013,03,31,16,04,19.80
2013,03,31,16,05,19.90
2013,03,31,16,06,19.90
2013,03,31,16,07,19.90
2013,03,31,16,08,19.80
2013,03,31,16,09,19.90
2013,03,31,16,10,19.90
2013,03,31,16,11,19.90
2013,03,31,16,12,19.90
2013,03,31,16,13,19.80
2013,03,31,16,14,19.80
2013,03,31,16,15,19.80
2013,03,31,16,16,19.80
2013,03,31,16,17,19.80
2013,03,31,16,18,19.80
2013,03,31,16,19,19.90
2013,03,31,16,20,19.90
2013,03,31,16,21,19.90
2013,03,31,16,22,19.90
2013,03,31,16,23,19.90
2013,03,31,16,24,19.90
2013,03,31,16,25,19.90
2013,03,31,16,26,19.80
2013,03,31,16,27,19.80
2013,03,31,16,28,19.80
2013,03,31,16,29,19.80
2013,03,31,16,30,19.90
2013,03,31,16,31,19.90
2013,03,31,16,32,19.90
2013,03,31,16,33,19.90
2013,03,31,16,34,19.90
2013,03,31,16,35,19.90
2013,03,31,16,36,20.00
2013,03,31,16,37,20.10
2013,03,31,16,38,20.10
2013,03,31,16,39,20.10
2013,03,31,16,40,20.10
2013,03,31,16,41,20.10
2013,03,31,16,42,20.10
2013,03,31,16,43,19.90
2013,03,31,16,44,19.90
2013,03,31,16,45,20.00
2013,03,31,16,46,20.10
2013,03,31,16,47,20.10
2013,03,31,16,48,20.10
2013,03,31,16,49,20.20
2013,03,31,16,50,20.20
2013,03,31,16,51,20.20
2013,03,31,16,52,20.10
2013,03,31,16,53,20.10
2013,03,31,16,54,20.20
2013,03,31,16,55,20.20
2013,03,31,16,56,20.20
2013,03,31,16,57,20.20
2013,03,31,16,58,20.20
2013,03,31,16,59,20.20
2013,03,31,17,00,20.20
2013,03,31,17,01,20.10
2013,03,31,17,02,19.90
2013,03,31,17,03,19.90
2013,03,31,17,04,19.80
2013,03,31,17,05,19.80
2013,03,31,17,06,19.80
2013,03,31,17,07,19.70
2013,03,31,17,08,19.70
2013,03,31,17,09,19.70
2013,03,31,17,10,19.80
2013,03,31,17,11,19.80
2013,03,31,17,12,19.80
2013,03,31,17,13,19.80
2013,03,31,17,14,19.80
2013,03,31,17,15,19.80
2013,03,31,17,16,19.80
2013,03,31,17,17,19.80
2013,03,31,17,18,19.90
2013,03,31,17,19,19.90
2013,03,31,17,20,19.90
2013,03,31,17,21,19.90
2013,03,31,17,22,19.90
2013,03,31,17,23,19.90
2013,03,31,17,24,19.90
2013,03,31,17,25,19.90
2013,03,31,17,26,19.90
2013,03,31,17,27,19.90
2013,03,31,17,28,19.90
2013,03,31,17,29,19.90
2013,03,31,17,30,19.90
2013,03,31,17,31,19.90
2013,03,31,17,32,19.90
2013,03,31,17,33,19.90
2013,03,31,17,34,19.90
2013,03,31,17,35,19.80
2013,03,31,17,36,19.80
2013,03,31,17,37,19.90